TimeEET,TemperatureF,Dew PointF,Humidity,Sea Level PressureIn,VisibilityMPH,Wind Direction,Wind SpeedMPH,Gust SpeedMPH,PrecipitationIn,Events,Conditions,WindDirDegrees,DateUTC
1:00 AM,57.2,44.6,63,30.12,-9999.0,Calm,Calm,-,N/A,,Clear,0,2012-11-14 23:00:00
2:00 AM,57.2,46.4,67,30.12,-9999.0,Calm,Calm,-,N/A,,Clear,0,2012-11-15 00:00:00
3:00 AM,55.4,42.8,63,30.12,-9999.0,Calm,Calm,-,N/A,,Clear,0,2012-11-15 01:00:00
4:00 AM,55.4,44.6,67,30.09,-9999.0,Calm,Calm,-,N/A,,Clear,0,2012-11-15 02:00:00
5:00 AM,50.0,42.8,76,30.12,-9999.0,Calm,Calm,-,N/A,,Clear,0,2012-11-15 03:00:00
6:00 AM,53.6,42.8,67,30.12,-9999.0,Calm,Calm,-,N/A,,Clear,0,2012-11-15 04:00:00
7:00 AM,57.2,46.4,67,30.12,-9999.0,North,4.6,-,N/A,,Clear,10,2012-11-15 05:00:00
8:00 AM,59.0,46.4,63,30.12,-9999.0,North,6.9,-,N/A,,Clear,10,2012-11-15 06:00:00
9:00 AM,64.4,42.8,45,30.15,-9999.0,NE,5.8,-,N/A,,Clear,40,2012-11-15 07:00:00
10:00 AM,66.2,41.0,40,30.15,-9999.0,East,4.6,-,N/A,,Clear,80,2012-11-15 08:00:00
11:00 AM,68.0,37.4,33,30.12,-9999.0,Variable,3.5,-,N/A,,Clear,0,2012-11-15 09:00:00
12:00 PM,69.8,39.2,33,30.09,-9999.0,ENE,3.5,-,N/A,,Clear,70,2012-11-15 10:00:00
1:00 PM,71.6,35.6,27,30.06,-9999.0,ESE,2.3,-,N/A,,Clear,110,2012-11-15 11:00:00
2:00 PM,71.6,35.6,27,30.06,-9999.0,Calm,Calm,-,N/A,,Clear,0,2012-11-15 12:00:00
3:00 PM,73.4,35.6,25,30.06,-9999.0,Calm,Calm,-,N/A,,Clear,0,2012-11-15 13:00:00
4:00 PM,71.6,35.6,27,30.06,-9999.0,Calm,Calm,-,N/A,,Clear,0,2012-11-15 14:00:00
5:00 PM,69.8,35.6,28,30.06,-9999.0,Calm,Calm,-,N/A,,Clear,0,2012-11-15 15:00:00
6:00 PM,66.2,33.8,30,30.06,-9999.0,Calm,Calm,-,N/A,,Clear,0,2012-11-15 16:00:00
7:00 PM,64.4,32.0,30,30.09,-9999.0,Calm,Calm,-,N/A,,Clear,0,2012-11-15 17:00:00
8:00 PM,60.8,33.8,36,30.09,-9999.0,Calm,Calm,-,N/A,,Clear,0,2012-11-15 18:00:00
9:00 PM,60.8,35.6,39,30.09,-9999.0,Calm,Calm,-,N/A,,Clear,0,2012-11-15 19:00:00
10:00 PM,59.0,35.6,42,30.09,-9999.0,Calm,Calm,-,N/A,,Clear,0,2012-11-15 20:00:00
11:00 PM,57.2,33.8,41,30.09,-9999.0,Calm,Calm,-,N/A,,Clear,0,2012-11-15 21:00:00